Regional Weather Roundup
Issued by NWS

Home | Current Version | Previous Version | Text Only | Print | Product List | Glossary Off
Versions: 1 2 3 4 5 6 7 8 9 10 11 12 13 14 15 16 17 18 19 20 21 22 23 24 25 26 27 28 29 30 31 32 33 34 35 36 37 38 39 40 41 42 43 44 45 46 47 48 49 50

000
ASUS45 KTFX 250104
RWRMT
MONTANA HOURLY WEATHER ROUNDUP
NATIONAL WEATHER SERVICE GREAT FALLS MT
704 PM MDT FRI OCT 24 2014

NOTE: "FAIR" INDICATES FEW OR NO CLOUDS BELOW 12000 FEET WITH NO
SIGNIFICANT WEATHER AND/OR OBSTRUCTIONS TO VISIBILITY.

* THESE STATIONS ARE NOT UNDER NWS QUALITY CONTROL. THEY DO NOT
   REPORT WEATHER SUCH AS PRECIPITATION OR FOG.

MTZ001>007-043-250200-
WEST OF THE DIVIDE
CITY           SKY/WX    TMP DP  RH WIND       PRES   REMARKS
KALISPELL      CLOUDY    46  39  77 CALM      30.08F
MISSOULA       LGT RAIN  46  46 100 N3        30.10F
BUTTE          CLOUDY    45  41  86 SW3       30.11F
MULLAN PASS    CLOUDY    36  36 100 SE7       30.07F WCI  30
* ESSEX        N/A       42  39  89 N/A        N/A
* LINCOLN      N/A       47  36  66 S3         N/A
* LOOKOUT PASS N/A       43  38  83 S5         N/A
* POLSON       N/A       46  37  71 N/A        N/A
* RONAN APT    CLOUDY    52  43  72 N/A        N/A
* SEELEY LAKE  N/A       47  38  71 SW1        N/A
* THOMP F APT  CLOUDY    56  24  29 S7G21      N/A
* YAAK HILL    N/A       49  42  77 N/A        N/A
$$

MTZ008-052>055-250200-
SOUTHWEST MONTANA
CITY           SKY/WX    TMP DP  RH WIND       PRES   REMARKS
BOZEMAN        CLOUDY    48  43  83 CALM      30.10R
DILLON         CLOUDY    46  43  89 E3        30.09S
W YELLOWSTONE  PTCLDY    50  30  46 SE3       30.16S
* THREE FORKS  CLOUDY    48  48 100 N/A        N/A
* BOULDER HILL N/A       44  39  83 S4         N/A
* MONIDA PASS  N/A       50  26  39 S10        N/A
* RAYNOLDS PAS N/A       51  33  50 S13        N/A
* WHITEHALL    N/A       49  44  83 N/A        N/A
* WISE RIVER   N/A       43  39  86 SW5G10     N/A
$$

MTZ009>010-012-014-046-048-049-054-250200-
EAST SLOPES AND CENTRAL MONTANA
CITY           SKY/WX    TMP DP  RH WIND       PRES   REMARKS
CUT BANK       CLOUDY    46  30  54 W6        30.06R
GREAT FALLS    CLOUDY    50  36  59 SW3       30.06R
HELENA         CLOUDY    52  41  66 CALM      30.08S
MALMSTROM AFB  CLOUDY    52  36  55 S3        30.08R
* CONRAD       CLOUDY    50  36  59 N/A        N/A
* DEARBORN     N/A       55  35  47 N/A        N/A
* EAST GLACIER N/A       43  29  58 W19G30     N/A
* MONARCH      N/A       46  30  54 SW6        N/A
* PENDROY      N/A       45  32  60 E1         N/A
* ROGERS PASS  N/A       43  32  65 E9G17      N/A
* SAINT MARY   N/A       44  29  56 S8G23      N/A
* SWEET GRASS  N/A       47  27  46 W7G12      N/A
$$

MTZ011-013-016-021-035-040-045-047-050-051-250200-
NORTH CENTRAL MONTANA
CITY           SKY/WX    TMP DP  RH WIND       PRES   REMARKS
HAVRE          MOCLDY    48  30  50 W6        30.04R
LEWISTOWN      CLOUDY    50  39  66 S3        30.08R
* CHESTER      N/A       51  30  45 NW3        N/A
* DENTON       N/A       53  33  47 W1G6       N/A
* GEYSER       N/A       49  34  56 SW6G12     N/A
* JUDITH GAP   N/A       50  39  66 SW6        N/A
* LOMA         N/A       52  33  48 S1         N/A
$$

MTZ017>020-022>027-061-062-250200-
NORTHEAST MONTANA
CITY           SKY/WX    TMP DP  RH WIND       PRES   REMARKS
GLASGOW        PTCLDY    48  27  44 SW3       30.03R
GLENDIVE       MOCLDY    46  32  58 W9        30.06S
JORDAN         MOCLDY    45  30  56 CALM      30.05S
SIDNEY         MOCLDY    52  27  38 SW7       30.04S
WOLF POINT     PTCLDY    52  28  40 W12       30.03R
* BEAVER HILL  N/A       50  28  43 W2         N/A
* CIRCLE       N/A       54  31  42 NW5        N/A
* LINDSAY DVD  N/A       44  29  56 NW3        N/A
* NAVAJO       N/A       45  26  47 W11        N/A
$$

MTZ028>042-056>058-250200-
SOUTHCENTRAL AND SOUTHEAST MONTANA
CITY           SKY/WX    TMP DP  RH WIND       PRES   REMARKS
BAKER          MOCLDY    48  28  46 W12       30.08R
BILLINGS       MOCLDY    54  37  53 NE5       30.09R
LIVINGSTON     CLOUDY    54  39  57 SW9       30.08S
MILES CITY     CLOUDY    54  34  47 SW8       30.07R
* LAUREL APT   MOCLDY    54  34  47 N/A        N/A
* ROUNDUP APT  CLOUDY    54  36  51 N/A        N/A
* ALZADA       N/A       56  30  37 N6         N/A
* HYSHAM       N/A       53  33  47 E4         N/A
* LAME DEER    N/A       49  29  46 NE4        N/A
* REED POINT   N/A       52  40  64 E1         N/A
* ROSCOE HILL  N/A       49  32  52 SE3        N/A
$$

REGIONAL REPORTS...DAKOTAS
CITY           SKY/WX    TMP DP  RH WIND       PRES   REMARKS
WILLISTON      PTCLDY    45  27  49 W8        30.00R
DICKINSON      PTCLDY    45  28  51 W9        30.02R
BEACH          N/A       46  28  50 W7        30.05S
CROSBY         CLEAR     41  28  60 W8        29.97R
TIOGA          CLEAR     41  28  60 W9        30.01R
BISMARCK       MOCLDY    57  34  42 W8        29.99R
GRAND FORKS    PTCLDY    57  34  42 W9        29.82R
FARGO          MOCLDY    63  34  34 W16       29.86R
BUFFALO SD     CLOUDY    55  27  34 W8        30.02R
RAPID CITY     CLEAR     57  37  47 N13       30.07R
$$

REGIONAL REPORTS...WYOMING/IDAHO/WASHINGTON
CITY           SKY/WX    TMP DP  RH WIND       PRES   REMARKS
GILLETTE       CLEAR     52  34  50 NE8       30.09R
SHERIDAN       PTCLDY    48  34  59 NW7       30.10R
CODY           PTCLDY    52  37  57 NE9       30.09R
YELLOWSTONE LA CLEAR     45  25  45 W3        30.26R
SALMON         MOCLDY    46  43  89 CALM      30.07R
MULLAN PASS    CLOUDY    36  36 100 SE7       30.07S WCI  30
SAND POINT     CLOUDY    48  41  77 NE6       30.06F
SPOKANE        CLOUDY    52  43  72 NE7       30.01F
$$

REGIONAL REPORTS...ALBERTA
CITY           SKY/WX    TMP DP  RH WIND       PRES   REMARKS
EDMONTON       MOCLDY    36  18  48 S5        29.92R WCI  32

$$




USA.gov is the U.S. government's official web portal to all federal, state and local government web resources and services.